This is the latest recevied weather packets stored in our database for station/object KE5WTH-14. If no packets are shown the sender has not sent any weather packets the latest 1 day(s).
| Time | Temp. | Humidity | Pressure | Rain* | Wind** | Luminosity | Snow |
|---|---|---|---|---|---|---|---|
| 1778050021 | 13.89° C | 78% | 1010.1 hPa | 0 mm | 1.79 m/s, 354° | 0 W/m² | - |
| 1778049962 | 13.89° C | 78% | 1010.1 hPa | 0 mm | 1.79 m/s, 18° | 0 W/m² | - |
| 1778049899 | 13.89° C | 78% | 1010 hPa | 0 mm | 2.24 m/s, 20° | 0 W/m² | - |
| 1778049838 | 13.89° C | 78% | 1010 hPa | 0 mm | 2.68 m/s, 16° | 0 W/m² | - |
| 1778049777 | 13.89° C | 78% | 1010 hPa | 0 mm | 3.13 m/s, 0° | 0 W/m² | - |
| 1778049712 | 13.89° C | 78% | 1009.9 hPa | 0 mm | 3.13 m/s, 8° | 0 W/m² | - |
| 1778049650 | 13.89° C | 78% | 1010 hPa | 0 mm | 3.13 m/s, 0° | 0 W/m² | - |
| 1778049589 | 13.89° C | 78% | 1010 hPa | 0 mm | 2.68 m/s, 17° | 0 W/m² | - |
| 1778049528 | 13.89° C | 78% | 1010 hPa | 0 mm | 2.68 m/s, 354° | 0 W/m² | - |
| 1778049467 | 13.89° C | 78% | 1010 hPa | 0 mm | 3.58 m/s, 358° | 0 W/m² | - |
| 1778049405 | 13.89° C | 78% | 1010.1 hPa | 0 mm | 3.13 m/s, 0° | 0 W/m² | - |
| 1778049345 | 13.89° C | 78% | 1010.1 hPa | 0 mm | 3.58 m/s, 3° | 0 W/m² | - |
| 1778049283 | 13.89° C | 78% | 1010.1 hPa | 0 mm | 3.58 m/s, 7° | 0 W/m² | - |
| 1778049220 | 13.89° C | 78% | 1010 hPa | 0 mm | 3.58 m/s, 0° | 0 W/m² | - |
| 1778049159 | 13.89° C | 78% | 1010.1 hPa | 0 mm | 3.13 m/s, 20° | 0 W/m² | - |
| 1778049098 | 13.89° C | 78% | 1010.2 hPa | 0 mm | 3.13 m/s, 0° | 0 W/m² | - |
| 1778049036 | 13.89° C | 79% | 1010.2 hPa | 0 mm | 2.68 m/s, 0° | 0 W/m² | - |
| 1778048975 | 13.89° C | 78% | 1010.3 hPa | 0 mm | 2.24 m/s, 0° | 0 W/m² | - |
| 1778048913 | 13.89° C | 78% | 1010.2 hPa | 0 mm | 2.68 m/s, 354° | 0 W/m² | - |
| 1778048853 | 13.89° C | 78% | 1010.3 hPa | 0 mm | 3.58 m/s, 0° | 0 W/m² | - |
| 1778048793 | 13.89° C | 78% | 1010.3 hPa | 0 mm | 3.58 m/s, 0° | 0 W/m² | - |
| 1778048734 | 13.89° C | 78% | 1010.2 hPa | 0 mm | 3.58 m/s, 353° | 0 W/m² | - |
| 1778048673 | 13.89° C | 78% | 1010.1 hPa | 0 mm | 4.02 m/s, 341° | 0 W/m² | - |
| 1778048613 | 13.89° C | 78% | 1010.2 hPa | 0 mm | 3.58 m/s, 0° | 0 W/m² | - |
| 1778048552 | 13.89° C | 78% | 1010.1 hPa | 0 mm | 3.13 m/s, 0° | 0 W/m² | - |
* Rain latest hour (hover to see other rain measurements)
** Current wind speed in m/s (hover to see current wind gust speed)